GW5276 Weather Reports


time (UTC)temp
C
wind
direction
speed
KPH
gust
KPH
rain 1hr
cm
rain 24hr
cm
rain mn
cm
humidity
%
barometer
mb
20260503200027 15 71 4.8 20.9 0.00 0.00 0.00 37 1016.9
20260503195524 15 278 3.2 11.3 0.00 0.00 0.00 34 1016.6
20260503195021 13 196 0.0 9.7 0.00 0.00 0.00 32 1016.6
20260503194518 13 294 0.0 3.2 0.00 0.00 0.00 37 1017.0
20260503194017 15 210 3.2 14.5 0.00 0.00 0.00 31 1017.0
20260503193514 15 257 3.2 4.8 0.00 0.00 0.00 35 1016.9
20260503193010 13 238 6.4 16.1 0.00 0.00 0.00 35 1017.0
20260503192507 13 274 9.7 12.9 0.00 0.00 0.00 36 1017.2
20260503192002 14 278 12.9 17.7 0.00 0.00 0.00 39 1017.1
20260503191459 13 244 4.8 16.1 0.00 0.00 0.00 36 1017.1
20260503190955 15 280 1.6 9.7 0.00 0.00 0.00 35 1017.3
20260503190453 15 218 4.8 11.3 0.00 0.00 0.00 33 1017.2
20260503185950 14 93 6.4 6.4 0.00 0.00 0.00 31 1017.4
20260503185446 14 238 0.0 9.7 0.00 0.00 0.00 36 1017.4
20260503184946 14 261 3.2 9.7 0.00 0.00 0.00 35 1017.5
20260503184443 15 236 9.7 16.1 0.00 0.00 0.00 37 1017.7
20260503183939 14 227 1.6 6.4 0.00 0.00 0.00 43 1017.5
20260503183436 13 226 9.7 12.9 0.00 0.00 0.00 46 1017.4
20260503182933 13 265 9.7 16.1 0.00 0.00 0.00 39 1017.8
20260503182432 13 60 1.6 9.7 0.00 0.00 0.00 37 1017.8
20260503181929 14 221 3.2 4.8 0.00 0.00 0.00 38 1017.8
20260503181426 13 52 3.2 6.4 0.00 0.00 0.00 39 1017.8
20260503180922 13 235 12.9 17.7 0.00 0.00 0.00 36 1018.0
20260503180420 13 239 6.4 11.3 0.00 0.00 0.00 42 1018.1
20260503175916 12 279 11.3 14.5 0.00 0.00 0.00 42 1018.0
20260503175414 12 258 11.3 16.1 0.00 0.00 0.00 39 1018.1
20260503174909 12 226 4.8 11.3 0.00 0.00 0.00 42 1018.4
20260503174408 12 221 6.4 16.1 0.00 0.00 0.00 42 1018.2
20260503173903 12 239 3.2 11.3 0.00 0.00 0.00 42 1018.0
20260503173359 12 252 9.7 12.9 0.00 0.00 0.00 47 1018.2
20260503172856 12 236 1.6 6.4 0.00 0.00 0.00 37 1018.2
20260503172354 12 230 6.4 14.5 0.00 0.00 0.00 40 1018.8
20260503171850 12 244 6.4 16.1 0.00 0.00 0.00 44 1018.5
20260503171347 12 222 11.3 14.5 0.00 0.00 0.00 46 1018.6
20260503170844 12 127 1.6 6.4 0.00 0.00 0.00 41 1018.4
20260503170340 12 66 3.2 4.8 0.00 0.00 0.00 40 1018.8
20260503150733 9 312 6.4 16.1 0.00 0.00 0.00 54 1019.8
20260503150229 9 235 4.8 12.9 0.00 0.00 0.00 54 1019.9
20260503140153 8 221 4.8 9.7 0.00 0.00 0.00 64 1020.1
20260503131123 6 231 6.4 11.3 0.00 0.00 0.00 70 1020.0
20260503130620 6 267 6.4 9.7 0.00 0.00 0.00 72 1020.0
20260503130118 6 220 3.2 9.7 0.00 0.00 0.00 75 1020.0
20260503110510 0 209 0.0 0.0 0.00 0.00 0.00 97 1019.4
20260503090356 0 180 0.0 0.0 0.00 0.00 0.00 96 1018.1
20260503081318 0 180 0.0 0.0 0.00 0.00 0.00 95 1017.8
20260503080814 0 180 0.0 0.0 0.00 0.00 0.00 95 1017.9
20260503080311 0 180 0.0 0.0 0.00 0.00 0.00 94 1018.0
20260503072748 1 180 0.0 0.0 0.00 0.00 0.00 92 1017.6
20260503072244 1 180 0.0 0.0 0.00 0.00 0.00 92 1017.5
20260503071740 2 180 0.0 0.0 0.00 0.00 0.00 92 1017.5
20260503071238 2 180 0.0 0.0 0.00 0.00 0.00 91 1017.3
20260503070734 2 180 0.0 0.0 0.00 0.00 0.00 91 1017.4
20260503070232 2 180 0.0 0.0 0.00 0.00 0.00 90 1017.2
20260503060151 3 180 0.0 0.0 0.00 0.00 0.00 89 1017.3
20260503054638 3 180 0.0 1.6 0.00 0.00 0.00 89 1017.3
20260503054135 3 178 0.0 0.0 0.00 0.00 0.00 89 1017.3
20260503053633 3 176 0.0 0.0 0.00 0.00 0.00 89 1017.3
20260503053132 3 176 0.0 0.0 0.00 0.00 0.00 89 1017.3
20260503052628 3 176 0.0 0.0 0.00 0.00 0.00 90 1017.2
20260503052124 3 176 0.0 0.0 0.00 0.00 0.00 90 1017.3
20260503051619 3 176 0.0 0.0 0.00 0.00 0.00 90 1017.1
20260503051118 3 176 0.0 0.0 0.00 0.00 0.00 90 1017.2
20260503050614 3 176 0.0 0.0 0.00 0.00 0.00 90 1017.1
20260503050111 3 176 0.0 0.0 0.00 0.00 0.00 90 1017.3
20260503045608 3 176 0.0 0.0 0.00 0.00 0.00 89 1017.2
20260503045105 3 176 0.0 0.0 0.00 0.00 0.00 89 1017.3
20260503044602 3 176 0.0 0.0 0.00 0.00 0.00 89 1017.3
20260503044059 3 176 0.0 0.0 0.00 0.00 0.00 89 1017.1
20260503043554 3 176 0.0 0.0 0.00 0.00 0.00 89 1017.3
20260503043051 3 176 0.0 0.0 0.00 0.00 0.00 89 1017.2
20260503042548 3 176 0.0 0.0 0.00 0.00 0.00 88 1017.1
20260503042044 3 176 0.0 0.0 0.00 0.00 0.00 88 1017.2
20260503041542 3 176 0.0 0.0 0.00 0.00 0.00 89 1017.3
20260503041039 3 176 0.0 0.0 0.00 0.00 0.00 89 1017.4
20260503040537 3 176 0.0 0.0 0.00 0.00 0.00 88 1017.2
20260503040034 3 176 0.0 0.0 0.00 0.00 0.00 89 1017.3
20260503035530 3 176 0.0 0.0 0.00 0.00 0.00 89 1017.2
20260503035028 3 176 0.0 0.0 0.00 0.00 0.00 89 1017.4
20260503034525 3 176 0.0 0.0 0.00 0.00 0.00 89 1017.4
20260503034022 3 176 0.0 0.0 0.00 0.00 0.00 89 1017.4
20260503033519 3 176 0.0 0.0 0.00 0.00 0.00 88 1017.4
20260503033018 3 176 0.0 0.0 0.00 0.00 0.00 88 1017.4
20260503032515 3 176 0.0 0.0 0.00 0.00 0.00 88 1017.2
20260503032013 3 176 0.0 0.0 0.00 0.00 0.00 88 1017.2
20260503031511 3 176 0.0 0.0 0.00 0.00 0.00 87 1017.2
20260503031007 3 176 0.0 0.0 0.00 0.00 0.00 87 1017.3
20260503030503 4 176 0.0 0.0 0.00 0.00 0.00 88 1017.4
20260503030000 4 176 0.0 0.0 0.00 0.00 0.00 87 1017.4
20260503025457 4 132 0.0 0.0 0.00 0.00 0.00 86 1017.3
20260503024955 4 129 0.0 0.0 0.00 0.00 0.00 84 1017.3
20260503024451 5 72 3.2 3.2 0.00 0.00 0.00 77 1017.3
20260503023949 5 3 0.0 0.0 0.00 0.00 0.00 77 1017.3
20260503023445 5 256 0.0 1.6 0.00 0.00 0.00 77 1017.1
20260503022942 5 106 0.0 0.0 0.00 0.00 0.00 77 1017.3
20260503022437 5 80 0.0 1.6 0.00 0.00 0.00 74 1017.1
20260503021933 6 73 0.0 0.0 0.00 0.00 0.00 74 1017.2
20260503021430 6 93 0.0 1.6 0.00 0.00 0.00 74 1017.3
20260503020927 6 93 0.0 1.6 0.00 0.00 0.00 72 1017.2
20260503020426 6 90 0.0 3.2 0.00 0.00 0.00 72 1017.1
20260503015922 6 72 0.0 3.2 0.00 0.00 0.00 70 1017.3
20260503015419 6 55 0.0 0.0 0.00 0.00 0.00 71 1017.1
20260503014914 6 100 0.0 0.0 0.00 0.00 0.00 69 1017.1
20260503014411 6 98 0.0 0.0 0.00 0.00 0.00 70 1017.0
20260503013909 6 97 0.0 3.2 0.00 0.00 0.00 68 1017.3
20260503013406 6 88 0.0 3.2 0.00 0.00 0.00 69 1017.0
20260503012903 6 83 0.0 3.2 0.00 0.00 0.00 67 1016.8
20260503012401 6 152 0.0 0.0 0.00 0.00 0.00 68 1016.8
20260503011857 6 234 0.0 0.0 0.00 0.00 0.00 71 1016.8
20260503011354 6 242 0.0 0.0 0.00 0.00 0.00 74 1016.6
20260503010850 6 245 0.0 0.0 0.00 0.00 0.00 71 1016.4
20260503010348 7 220 3.2 3.2 0.00 0.00 0.00 63 1016.4
20260503005844 7 226 1.6 3.2 0.00 0.00 0.00 63 1016.5
20260503005342 7 274 0.0 0.0 0.00 0.00 0.00 70 1016.3
20260503004838 7 274 3.2 4.8 0.00 0.00 0.00 65 1016.5
20260503004336 7 221 3.2 4.8 0.00 0.00 0.00 62 1016.2
20260503003834 7 260 0.0 0.0 0.00 0.00 0.00 64 1016.0
20260503003330 7 254 3.2 4.8 0.00 0.00 0.00 64 1015.9
20260503002827 7 227 3.2 3.2 0.00 0.00 0.00 65 1016.1
20260503002324 7 255 1.6 3.2 0.00 0.00 0.00 62 1016.0
20260503001820 7 242 0.0 0.0 0.00 0.00 0.00 61 1016.0
20260503001316 7 228 3.2 3.2 0.00 0.00 0.00 59 1015.9
20260503000814 8 96 0.0 3.2 0.00 0.00 0.00 59 1015.7
20260503000312 8 96 0.0 3.2 0.00 0.00 0.00 56 1015.5
20260502235808 8 245 0.0 1.6 0.00 0.00 0.00 54 1015.7
20260502235306 8 290 0.0 3.2 0.00 0.00 0.00 58 1015.6
20260502234802 8 249 1.6 4.8 0.00 0.00 0.00 56 1015.5
20260502234259 8 242 6.4 12.9 0.00 0.00 0.00 52 1015.5
20260502233755 8 257 0.0 3.2 0.00 0.00 0.00 55 1015.5
20260502233252 9 259 3.2 6.4 0.00 0.00 0.00 52 1015.4
20260502232748 9 312 3.2 3.2 0.00 0.00 0.00 50 1015.2
20260502232245 9 212 1.6 9.7 0.00 0.00 0.00 49 1015.2
20260502231742 10 290 3.2 4.8 0.00 0.00 0.00 49 1015.3
20260502231240 10 89 6.4 6.4 0.00 0.00 0.00 48 1015.2
20260502230738 10 218 1.6 3.2 0.00 0.00 0.00 50 1014.9
20260502230236 10 268 3.2 4.8 0.00 0.00 0.00 50 1014.9
20260502225732 10 96 3.2 6.4 0.00 0.00 0.00 48 1014.8
20260502225229 10 87 0.0 3.2 0.00 0.00 0.00 50 1014.8
20260502224725 10 94 1.6 4.8 0.00 0.00 0.00 48 1014.6
20260502224222 10 166 0.0 1.6 0.00 0.00 0.00 44 1014.6
20260502223720 10 218 8.0 14.5 0.00 0.00 0.00 48 1014.6
20260502223218 10 266 1.6 9.7 0.00 0.00 0.00 45 1014.6
20260502222715 10 269 3.2 4.8 0.00 0.00 0.00 49 1014.7
20260502222212 10 251 1.6 4.8 0.00 0.00 0.00 45 1014.5
20260502221708 10 242 1.6 1.6 0.00 0.00 0.00 45 1014.6
20260502221204 10 223 1.6 3.2 0.00 0.00 0.00 44 1014.6
20260502220700 10 231 1.6 4.8 0.00 0.00 0.00 43 1014.5
20260502220157 10 97 0.0 4.8 0.00 0.00 0.00 44 1014.3
20260502215654 10 254 3.2 12.9 0.00 0.00 0.00 46 1014.3
20260502215151 11 143 3.2 4.8 0.00 0.00 0.00 44 1014.1
20260502214648 11 68 6.4 6.4 0.00 0.00 0.00 44 1014.4
20260502214145 11 216 8.0 12.9 0.00 0.00 0.00 43 1014.3
20260502213642 11 223 1.6 4.8 0.00 0.00 0.00 40 1014.2
20260502213140 10 99 1.6 4.8 0.00 0.00 0.00 46 1014.4
20260502212638 10 218 4.8 14.5 0.00 0.00 0.00 44 1014.2
20260502212136 11 5 3.2 6.4 0.00 0.00 0.00 44 1014.1
20260502211631 10 254 3.2 4.8 0.00 0.00 0.00 42 1014.2
20260502211129 11 242 3.2 11.3 0.00 0.00 0.00 44 1014.3
20260502210626 11 96 3.2 4.8 0.00 0.00 0.00 40 1014.1
20260502210123 11 225 4.8 9.7 0.00 0.00 0.00 41 1014.2
20260502205620 12 79 9.7 11.3 0.00 0.00 0.00 38 1014.2
20260502205117 11 212 3.2 9.7 0.00 0.00 0.00 42 1014.1
20260502204614 11 258 4.8 9.7 0.00 0.00 0.00 39 1014.1
20260502204111 11 296 0.0 6.4 0.00 0.00 0.00 40 1014.3
20260502203608 11 220 6.4 11.3 0.00 0.00 0.00 41 1014.2
20260502203105 11 286 6.4 11.3 0.00 0.00 0.00 44 1014.0
20260502202601 11 235 6.4 16.1 0.00 0.00 0.00 43 1014.2
20260502202059 12 230 1.6 6.4 0.00 0.00 0.00 41 1014.3
20260502201555 11 223 6.4 14.5 0.00 0.00 0.00 43 1014.4
20260502201047 11 213 11.3 16.1 0.00 0.00 0.00 43 1014.6
20260502200542 11 194 0.0 4.8 0.00 0.00 0.00 44 1014.5